Regional Weather Roundup
Issued by NWS

Home | Current Version | Previous Version | Text Only | Print | Product List | Glossary Off
Versions: 1 2 3 4 5 6 7 8 9 10 11 12 13 14 15 16 17 18 19 20 21 22 23 24 25 26 27 28 29 30 31 32 33 34 35 36 37 38 39 40 41 42 43 44 45 46 47 48 49 50

000
ASUS43 KIND 271309
RWRIN

WEATHER ROUNDUP FOR INDIANA
NATIONAL WEATHER SERVICE INDIANAPOLIS IN
900 AM EDT MON APR 27 2015

NOTE: "FAIR" INDICATES FEW OR NO CLOUDS BELOW 12,000 FEET WITH NO
SIGNIFICANT WEATHER AND/OR OBSTRUCTIONS TO VISIBILITY.

* - STATION DOES NOT REPORT WEATHER SUCH AS PRECIPITATION OR FOG.

+ - STATION NOT QUALITY CONTROLLED BY THE NATIONAL WEATHER SERVICE.
    USE DATA WITH CAUTION...ESPECIALLY DEWPOINT AND RELATIVE
    HUMIDITY OBSERVATIONS.

INZ001>003-010>013-019-020-271400-
NORTHWEST INDIANA

CITY           SKY/WX    TMP DP  RH WIND       PRES   REMARKS
GARY /AIRPORT/ SUNNY     45  30  57 N17G29    30.10R
KNOX *+        SUNNY     43  28  56 NW10      30.06R
LA PORTE +     SUNNY     44  37  75 NW14G20   30.06R
MICHIGAN CITY+ SUNNY     41  32  70 N8        30.07R
MONTICELLO +   SUNNY     42  37  81 NW12      30.06R
VALPARAISO     SUNNY     43  35  73 N8        30.08R

$$

LMZ046-743>745-271400-
SOUTHERN LAKE MICHIGAN

STATION/POSITION TIME  TEMP    WIND        PRES    WAVE
                       AIR SEA DIR/SP/G            HT
                 (UTC) (F)     (DEG/KT/KT) (MB)    (FT)
BURNS HARBOR     1300   41     360/ 16/ 20 1018.6S
MICHIGAN CITY    1300   41     340/ 22/ 26   N/A
5NW MICH CITY    1300   41 45  360/ 16/ 21   N/A     5

$$

INZ004-005-014>016-021>024-271400-
NORTH CENTRAL INDIANA

CITY           SKY/WX    TMP DP  RH WIND       PRES   REMARKS
ELKHART        SUNNY     43  30  61 N7        30.02R
GOSHEN         SUNNY     44  33  65 N9        30.01R
LOGANSPORT +   SUNNY     41  34  75 NW9       30.05R
PERU/GRISSOM   SUNNY     43  35  73 NW9       30.02R
ROCHESTER +    SUNNY     45  36  70 N10       30.05R
SOUTH BEND     SUNNY     43  34  70 N14       30.04R
WARSAW +       SUNNY     41  32  70 N6        30.02R

$$

INZ006>009-017-018-025>027-271400-
NORTHEAST INDIANA

CITY           SKY/WX    TMP DP  RH WIND       PRES   REMARKS
ANGOLA *+      SUNNY     43  30  61 N3        29.98R
AUBURN +       SUNNY     45  32  61 NW9       30.00R
FORT WAYNE     MOSUNNY   45  35  68 NW7       30.00R
HUNTINGTON +   SUNNY     43  33  68 N6        30.01R

$$

INZ028-029-035-036-043>045-051>053-271400-
WEST CENTRAL INDIANA

CITY           SKY/WX    TMP DP  RH WIND       PRES   REMARKS
CRAWFORDSVL +  SUNNY     40  31  70 N9        30.05R
GREENCASTLE +  SUNNY     41  32  70 N9        30.04S
LAFAYETTE      SUNNY     41  35  79 NW12      30.07R
TERRE HAUTE    SUNNY     43  34  70 N10       30.06R

$$

INZ030>032-037>040-046>048-054>057-064-065-271400-
CENTRAL INDIANA

CITY           SKY/WX    TMP DP  RH WIND       PRES   REMARKS
ANDERSON       SUNNY     41  30  65 NW12      30.02
CP ATTERBURY + SUNNY     43  34  70 NW6       30.03R
COLUMBUS       SUNNY     41  32  70 NW9       30.02R
FISHERS *+     SUNNY     41  36  81 NW9       30.03R
FRANKFORT +    SUNNY     41  37  83 NW10      30.06R
GREENWOOD *+   SUNNY     43  32  65 N8        30.02S
INDIANAPOLIS   MOSUNNY   43  33  68 NW13      30.01R
-EAGLE CREEK   SUNNY     42  34  73 NW10      30.03R
KOKOMO *+      SUNNY     43  34  70 NW12      30.02R
MARION +       SUNNY     41  32  70 N7        30.01R
MT COMFORT *+  SUNNY     43  28  56 NW10      30.02R
SHELBYVILLE    SUNNY     44  34  67 NW10      30.01R
ZIONSVILLE +   SUNNY     42  34  73 NW10      30.04R

$$

INZ033-034-041-042-049-050-058-059-271400-
EAST CENTRAL INDIANA

CITY           SKY/WX    TMP DP  RH WIND       PRES   REMARKS
MUNCIE         SUNNY     42  34  73 NW9       30.00R

$$

INZ060-061-067>069-081>083-085>088-271400-
SOUTHWEST INDIANA

CITY           SKY/WX    TMP DP  RH WIND       PRES   REMARKS
EVANSVILLE     PTSUNNY   47  32  56 N9        30.02F
HUNTINGBURG *+ SUNNY     45  30  57 N9        30.02F
WASHINGTON +   SUNNY     43  31  62 N13       30.03F

$$

INZ062-063-066-070>080-084-089>092-271400-
SOUTH CENTRAL AND SOUTHEAST INDIANA

CITY           SKY/WX    TMP DP  RH WIND       PRES   REMARKS
BEDFORD +      SUNNY     43  32  65 N7        30.03R
BLOOMINGTON    SUNNY     44  34  67 N9        30.03R
MADISON *+     SUNNY     43  32  65 NW3       30.02R
NORTH VERNON + SUNNY     43  34  70 NW5       30.01R
SEYMOUR +      SUNNY     45  32  61 N8        30.02R

$$



USA.gov is the U.S. government's official web portal to all federal, state and local government web resources and services.